EW2142 Weather Reports


Display with metric or nautical units.
time (UTC)temp
F
wind
direction
speed
MPH
gust
MPH
rain 1hr
in
rain 24hr
in
rain mn
in
humidity
%
barometer
mb
20260904104003 62 280 1.0 4.0 0.00 0.23 0.08 46 998.1
20260904103503 62 323 0.0 3.0 0.00 0.23 0.08 42 998.1
20260904103003 62 320 0.0 1.0 0.00 0.23 0.08 43 998.2
20260904102503 62 318 0.0 6.0 0.00 0.23 0.08 40 998.2
20260904102002 62 317 0.0 6.0 0.00 0.23 0.08 44 998.3
20260904101524 62 274 0.0 1.0 0.00 0.23 0.08 37 998.3
20260904101003 62 282 0.0 1.0 0.00 0.23 0.08 37 998.4
20260904100502 62 294 0.0 2.0 0.00 0.23 0.08 37 998.4
20260904100003 62 324 0.0 2.0 0.00 0.23 0.08 33 998.5
20260904095503 62 281 0.0 3.0 0.00 0.23 0.08 33 998.6
20260904095024 62 261 0.0 3.0 0.00 0.23 0.08 36 998.5
20260904094503 62 131 0.0 3.0 0.00 0.23 0.08 36 998.6
20260904094024 62 123 0.0 2.0 0.00 0.23 0.08 36 998.5
20260904093524 62 303 0.0 3.0 0.00 0.23 0.08 33 998.7
20260904093024 62 299 0.0 3.0 0.00 0.23 0.08 34 998.8
20260904092503 62 251 0.0 5.0 0.00 0.23 0.08 38 998.7
20260904092003 62 176 0.0 5.0 0.00 0.23 0.08 39 998.8
20260904091503 62 269 0.0 3.0 0.00 0.23 0.08 37 998.9
20260904091024 62 285 0.0 4.0 0.00 0.23 0.08 38 998.9
20260904090503 62 312 0.0 4.0 0.00 0.23 0.08 37 999.0
20260904090024 62 306 0.0 3.0 0.00 0.23 0.08 38 999.0
20260904085503 62 295 0.0 4.0 0.00 0.23 0.08 34 999.0
20260904085003 62 303 0.0 4.0 0.00 0.23 0.08 28 999.0
20260904084503 61 194 0.0 3.0 0.00 0.23 0.08 26 999.0
20260904084003 61 204 0.0 3.0 0.00 0.23 0.08 27 999.0
20260904083503 61 283 0.0 3.0 0.00 0.23 0.08 29 999.0
20260904083003 61 296 0.0 3.0 0.00 0.23 0.08 30 999.0
20260904082503 61 259 0.0 1.0 0.00 0.23 0.08 34 999.0
20260904082002 61 292 0.0 9.0 0.00 0.23 0.08 40 999.0
20260904081503 61 302 1.0 9.0 0.00 0.23 0.08 44 999.1
20260904081002 61 304 0.0 5.0 0.00 0.23 0.08 44 999.1
20260904080503 61 309 0.0 5.0 0.00 0.23 0.08 45 999.0
20260904080002 61 319 0.0 5.0 0.00 0.23 0.08 47 999.1
20260904075503 61 11 0.0 5.0 0.00 0.23 0.08 41 999.1
20260904075024 61 323 0.0 8.0 0.00 0.23 0.08 44 999.0
20260904074503 61 300 0.0 8.0 0.00 0.23 0.08 48 999.2
20260904074003 61 294 0.0 5.0 0.00 0.23 0.08 46 999.2
20260904073503 61 313 1.0 6.0 0.00 0.23 0.08 50 999.4
20260904073003 61 316 1.0 6.0 0.00 0.23 0.08 49 999.4
20260904072524 61 290 0.0 6.0 0.00 0.23 0.08 43 999.3
20260904072002 61 304 0.0 8.0 0.00 0.23 0.08 43 999.3
20260904071503 61 311 1.0 8.0 0.00 0.23 0.08 42 999.5
20260904071024 61 304 0.0 7.0 0.00 0.23 0.08 42 999.4
20260904070503 61 306 0.0 7.0 0.00 0.23 0.08 36 999.3
20260904070003 60 309 0.0 3.0 0.00 0.23 0.08 25 999.4
20260904065503 59 304 1.0 3.0 0.00 0.23 0.08 24 999.4
20260904065003 59 309 0.0 3.0 0.00 0.23 0.08 25 999.4
20260904064503 59 300 1.0 5.0 0.00 0.23 0.08 26 999.4
20260904064003 59 315 1.0 6.0 0.00 0.23 0.08 31 999.4
20260904063503 59 330 1.0 6.0 0.00 0.23 0.08 26 999.4
20260904063024 59 325 0.0 4.0 0.00 0.23 0.08 23 999.6
20260904062503 59 314 1.0 4.0 0.00 0.23 0.08 24 999.6
20260904062002 59 312 0.0 4.0 0.00 0.23 0.08 20 999.6
20260904061503 59 143 0.0 2.0 0.00 0.23 0.08 19 999.8
20260904061024 59 178 0.0 2.0 0.00 0.23 0.08 19 999.7
20260904060503 59 282 0.0 4.0 0.00 0.23 0.08 19 999.7
20260904060003 59 284 0.0 4.0 0.00 0.23 0.08 22 999.7
20260904055503 59 320 1.0 6.0 0.00 0.23 0.08 21 999.7
20260904055003 59 321 1.0 7.0 0.00 0.23 0.08 24 999.8
20260904054503 59 318 1.0 7.0 0.00 0.23 0.08 19 999.9
20260904054003 58 283 0.0 5.0 0.00 0.23 0.08 14 999.9
20260904053503 59 278 1.0 7.0 0.00 0.23 0.08 17 999.9
20260904053003 59 283 1.0 7.0 0.00 0.23 0.08 18 999.9
20260904052503 58 301 0.0 7.0 0.00 0.23 0.08 19 1000.0
20260904052023 59 0 0.0 4.0 0.00 0.23 0.08 3 999.8
20260904051503 59 0 0.0 4.0 0.00 0.23 0.08 3 999.9
20260904051002 59 0 0.0 4.0 0.00 0.23 0.08 3 1000.0
20260904050502 59 0 0.0 4.0 0.00 0.23 0.08 3 1000.0
20260904050003 59 0 0.0 4.0 0.00 0.23 0.08 3 999.9
20260904045502 59 0 0.0 4.0 0.00 0.23 0.08 3 999.9
20260904045003 59 0 0.0 4.0 0.00 0.23 0.08 3 999.9
20260904044503 59 0 0.0 4.0 0.00 0.23 0.08 3 1000.0
20260904044003 59 0 0.0 4.0 0.00 0.23 0.08 3 1000.0
20260904043503 59 0 0.0 4.0 0.00 0.23 0.08 3 1000.1
20260904043024 59 0 0.0 4.0 0.00 0.23 0.08 3 999.9
20260904042503 59 0 0.0 4.0 0.00 0.23 0.08 3 1000.0
20260904042003 59 0 0.0 4.0 0.00 0.23 0.08 3 999.9
20260904041503 59 0 0.0 4.0 0.00 0.23 0.08 3 1000.0
20260904041003 59 198 0.0 4.0 0.00 0.23 0.08 3 1000.1
20260904040503 59 175 0.0 6.0 0.00 0.23 0.08 3 1000.1
20260904040003 57 169 0.0 6.0 0.00 0.23 0.08 3 1000.2
20260904035503 58 312 1.0 6.0 0.00 0.23 0.08 5 1000.2
20260904035003 58 310 1.0 6.0 0.00 0.23 0.08 4 1000.1
20260904034503 57 307 0.0 4.0 0.00 0.23 0.08 1 1000.1
20260904034024 57 264 0.0 4.0 0.00 0.23 0.08 1 1000.1
20260904033524 57 267 0.0 4.0 0.00 0.23 0.08 1 1000.1
20260904033003 57 282 0.0 7.0 0.00 0.23 0.08 1 1000.2
20260904032503 57 311 1.0 7.0 0.00 0.23 0.08 1 1000.2
20260904032003 57 319 1.0 4.0 0.00 0.23 0.08 1 1000.2
20260904031503 57 324 1.0 4.0 0.00 0.23 0.08 1 1000.5
20260904031002 57 312 1.0 6.0 0.00 0.23 0.08 1 1000.4
20260904030523 57 315 1.0 9.0 0.00 0.23 0.08 1 1000.5
20260904030024 57 352 0.0 9.0 0.00 0.23 0.08 1 1000.5
20260904025503 57 251 0.0 3.0 0.00 0.23 0.08 1 1000.4
20260904025003 57 288 0.0 3.0 0.00 0.23 0.08 1 1000.5
20260904024503 57 282 0.0 3.0 0.00 0.23 0.08 1 1000.5
20260904024003 57 299 0.0 4.0 0.00 0.23 0.08 1 1000.5
20260904023503 57 294 1.0 5.0 0.00 0.23 0.08 1 1000.5
20260904023024 57 292 1.0 8.0 0.00 0.23 0.08 1 1000.5
20260904022524 56 244 0.0 8.0 0.00 0.23 0.08 1 1000.6
20260904022003 56 302 1.0 6.0 0.00 0.23 0.08 1 1000.6
20260904021502 56 317 1.0 6.0 0.00 0.23 0.08 1 1000.7
20260904021002 56 331 0.0 4.0 0.00 0.23 0.08 1 1000.8
20260904020503 56 10 0.0 3.0 0.00 0.23 0.08 1 1000.7
20260904020003 56 334 0.0 3.0 0.00 0.23 0.08 1 1000.8
20260904015524 56 229 0.0 1.0 0.00 0.23 0.08 1 1000.7
20260904015003 57 295 0.0 5.0 0.00 0.23 0.08 1 1000.8
20260904014503 56 280 0.0 5.0 0.00 0.23 0.08 1 1000.7
20260904014003 56 144 0.0 4.0 0.00 0.23 0.08 1 1000.7
20260904013524 56 152 0.0 2.0 0.00 0.23 0.08 1 1000.9
20260904013003 56 314 0.0 9.0 0.00 0.23 0.08 1 1000.9
20260904012503 56 313 0.0 9.0 0.00 0.23 0.08 1 1000.9
20260904012003 56 180 0.0 2.0 0.00 0.23 0.08 1 1001.0
20260904011524 56 243 0.0 3.0 0.00 0.23 0.08 1 1001.0
20260904011024 56 244 0.0 7.0 0.00 0.23 0.08 1 1000.9
20260904010503 56 257 0.0 7.0 0.00 0.23 0.08 1 1000.9
20260904010003 56 281 1.0 7.0 0.00 0.23 0.08 1 1000.8
20260904005503 56 180 1.0 7.0 0.00 0.23 0.08 1 1001.0
20260904005002 57 120 1.0 4.0 0.00 0.23 0.08 1 1001.1
20260904004503 57 309 0.0 4.0 0.00 0.23 0.08 1 1001.4
20260904004003 57 306 0.0 3.0 0.00 0.23 0.08 1 1001.4
20260904003524 57 129 0.0 3.0 0.00 0.23 0.08 1 1001.5
20260904003003 57 142 0.0 3.0 0.00 0.23 0.08 1 1001.5
20260904002503 57 278 0.0 1.0 0.00 0.23 0.08 1 1001.8
20260904002003 57 289 0.0 5.0 0.00 0.23 0.08 1 1001.8
20260904001503 57 290 0.0 6.0 0.00 0.23 0.08 1 1001.7
20260904001003 57 309 1.0 9.0 0.00 0.23 0.08 1 1001.7
20260904000502 57 310 1.0 9.0 0.00 0.23 0.08 1 1001.7
20260904000003 57 275 1.0 4.0 0.00 0.23 0.08 1 1001.6
20260903235503 57 306 1.0 4.0 0.00 0.23 0.08 1 1001.6
20260903235003 57 320 1.0 4.0 0.00 0.23 0.08 1 1001.5
20260903234503 57 318 0.0 2.0 0.01 0.23 0.08 1 1001.6
20260903234024 57 310 0.0 7.0 0.01 0.23 0.08 1 1001.6
20260903233503 57 301 0.0 7.0 0.01 0.23 0.08 1 1001.7
20260903233024 57 301 0.0 4.0 0.01 0.23 0.08 1 1001.6
20260903232503 57 295 0.0 4.0 0.01 0.23 0.08 1 1001.6
20260903232024 58 310 1.0 10.0 0.02 0.23 0.08 1 1001.7
20260903231502 58 310 1.0 10.0 0.03 0.23 0.08 1 1001.8
20260903231002 58 304 1.0 8.0 0.06 0.23 0.08 1 1001.8
20260903230503 58 318 1.0 8.0 0.07 0.23 0.08 1 1001.7
20260903230003 58 323 0.0 7.0 0.08 0.23 0.08 1 1001.7
20260903225502 58 337 0.0 7.0 0.09 0.23 0.08 1 1001.7
20260903225003 58 308 0.0 4.0 0.10 0.23 0.08 1 1001.5
20260903224524 58 295 0.0 4.0 0.13 0.22 0.07 1 1001.6
20260903224003 58 291 0.0 4.0 0.17 0.22 0.07 1 1001.6
20260903223524 58 130 0.0 6.0 0.18 0.22 0.07 1 1001.7
20260903223003 58 128 0.0 6.0 0.20 0.22 0.07 1 1001.7
20260903222503 58 242 0.0 1.0 0.20 0.22 0.07 1 1001.8
20260903222003 58 261 0.0 1.0 0.20 0.21 0.06 1 1001.9
20260903221503 58 0 0.0 0.0 0.18 0.20 0.05 1 1001.9
20260903221002 58 0 0.0 0.0 0.16 0.17 0.02 1 1001.9
20260903220502 58 0 0.0 0.0 0.14 0.16 0.01 1 1001.9
20260903220005 58 127 0.0 1.0 0.13 0.15 0.00 1 1001.9
20260903215503 58 127 0.0 1.0 0.13 0.14 0.14 1 1002.0
20260903215023 58 0 0.0 0.0 0.11 0.13 0.13 1 1001.9
20260903214524 58 0 0.0 0.0 0.08 0.09 0.10 1 1001.9
20260903214003 58 0 0.0 0.0 0.04 0.06 0.06 1 1002.0
20260903213503 58 0 0.0 0.0 0.02 0.04 0.04 1 1002.0
20260903213003 58 0 0.0 0.0 0.01 0.02 0.02 1 1002.0
20260903212503 57 0 0.0 0.0 0.00 0.02 0.02 1 1002.0
20260903212003 57 0 0.0 0.0 0.00 0.02 0.02 1 1002.1
20260903211503 57 0 0.0 0.0 0.00 0.02 0.02 1 1002.1
20260903211024 57 0 0.0 0.0 0.00 0.02 0.02 1 1002.2
20260903210502 57 0 0.0 0.0 0.00 0.02 0.02 1 1002.3
20260903210003 57 127 0.0 1.0 0.00 0.02 0.02 1 1002.4
20260903205503 57 127 0.0 1.0 0.00 0.02 0.02 1 1002.4
20260903205003 57 0 0.0 0.0 0.00 0.02 0.02 1 1002.4
20260903204524 57 0 0.0 0.0 0.00 0.02 0.02 1 1002.4
20260903204003 57 0 0.0 0.0 0.00 0.02 0.02 1 1002.4
20260903203503 58 0 0.0 0.0 0.00 0.02 0.02 1 1002.4
20260903203003 57 0 0.0 0.0 0.00 0.02 0.02 1 1002.6
20260903202503 57 0 0.0 0.0 0.00 0.02 0.02 1 1002.7
20260903202024 57 0 0.0 0.0 0.00 0.02 0.02 1 1002.7
20260903201503 58 127 0.0 1.0 0.01 0.02 0.02 1 1002.7
20260903201002 58 127 0.0 1.0 0.01 0.02 0.02 1 1002.7
20260903200503 58 0 0.0 0.0 0.01 0.02 0.02 1 1002.7
20260903200003 58 0 0.0 0.0 0.01 0.02 0.02 1 1002.7
20260903195503 58 0 0.0 0.0 0.01 0.02 0.02 1 1002.7
20260903195003 58 0 0.0 0.0 0.01 0.02 0.02 1 1002.7
20260903194524 58 0 0.0 0.0 0.01 0.02 0.02 1 1002.8
20260903194024 58 0 0.0 0.0 0.01 0.02 0.02 1 1002.7
20260903193503 58 0 0.0 0.0 0.01 0.02 0.02 1 1002.8
20260903193003 58 0 0.0 0.0 0.01 0.02 0.02 1 1002.9
20260903192503 58 0 0.0 0.0 0.01 0.02 0.02 1 1002.9
20260903192003 58 0 0.0 0.0 0.01 0.02 0.02 1 1003.0
20260903191503 58 0 0.0 0.0 0.00 0.01 0.01 1 1003.0
20260903191002 58 0 0.0 0.0 0.00 0.01 0.01 1 1003.1
20260903190503 58 0 0.0 0.0 0.00 0.01 0.01 1 1003.1
20260903190003 58 0 0.0 0.0 0.00 0.01 0.01 1 1003.1
20260903185503 58 0 0.0 0.0 0.00 0.01 0.01 1 1003.1
20260903185003 58 0 0.0 0.0 0.00 0.01 0.01 1 1003.2
20260903184503 58 0 0.0 0.0 0.00 0.01 0.01 1 1003.2
20260903184003 58 0 0.0 0.0 0.00 0.01 0.01 1 1003.1
20260903183503 58 0 0.0 0.0 0.00 0.01 0.01 1 1003.2
20260903183003 58 0 0.0 0.0 0.00 0.01 0.01 1 1003.2
20260903182503 58 0 0.0 0.0 0.00 0.01 0.01 1 1003.2
20260903182003 58 0 0.0 0.0 0.00 0.01 0.01 1 1003.3
20260903181503 58 0 0.0 0.0 0.00 0.01 0.01 1 1003.3
20260903181002 58 0 0.0 0.0 0.00 0.01 0.01 1 1003.3
20260903180503 58 0 0.0 0.0 0.00 0.01 0.01 1 1003.4
20260903180024 58 0 0.0 0.0 0.00 0.01 0.01 1 1003.4
20260903175524 58 0 0.0 0.0 0.00 0.01 0.01 1 1003.4
20260903175003 58 0 0.0 0.0 0.00 0.01 0.01 1 1003.3
20260903174524 58 0 0.0 0.0 0.00 0.01 0.01 1 1003.4
20260903174024 58 0 0.0 0.0 0.00 0.01 0.01 1 1003.4
20260903173503 58 0 0.0 0.0 0.00 0.01 0.01 1 1003.5
20260903173003 58 0 0.0 0.0 0.00 0.01 0.01 1 1003.4
20260903172503 58 0 0.0 0.0 0.00 0.01 0.01 1 1003.5
20260903172003 58 0 0.0 0.0 0.00 0.01 0.01 1 1003.5
20260903171503 58 0 0.0 0.0 0.00 0.01 0.01 1 1003.4
20260903171024 58 0 0.0 0.0 0.01 0.01 0.01 1 1003.2
20260903170502 58 0 0.0 0.0 0.01 0.01 0.01 1 1003.3
20260903170003 59 127 0.0 1.0 0.01 0.01 0.01 1 1003.4
20260903165502 59 127 0.0 1.0 0.01 0.01 0.01 1 1003.5
20260903165003 59 0 0.0 0.0 0.01 0.01 0.01 1 1003.5
20260903164503 59 0 0.0 0.0 0.01 0.01 0.01 1 1003.6
20260903164003 59 0 0.0 0.0 0.01 0.01 0.01 1 1003.7
20260903163503 59 0 0.0 0.0 0.01 0.01 0.01 1 1003.7
20260903163003 59 0 0.0 0.0 0.01 0.01 0.01 1 1003.8
20260903162503 59 0 0.0 0.0 0.01 0.01 0.01 1 1003.8
20260903162003 59 0 0.0 0.0 0.01 0.01 0.01 1 1003.8
20260903161503 59 0 0.0 0.0 0.01 0.01 0.01 1 1003.9
20260903161003 59 0 0.0 0.0 0.00 0.00 0.00 1 1004.0
20260903160503 59 0 0.0 0.0 0.00 0.00 0.00 1 1004.0
20260903160003 59 0 0.0 0.0 0.00 0.00 0.00 1 1004.0
20260903155502 59 0 0.0 0.0 0.00 0.00 0.00 1 1004.1
20260903155003 59 0 0.0 0.0 0.00 0.00 0.00 1 1004.2
20260903154503 59 0 0.0 0.0 0.00 0.00 0.00 1 1004.2
20260903154003 59 0 0.0 0.0 0.00 0.00 0.00 1 1004.2
20260903153503 59 131 0.0 1.0 0.00 0.00 0.00 1 1004.3
20260903153003 59 131 0.0 1.0 0.00 0.00 0.00 1 1004.3
20260903152503 60 131 0.0 1.0 0.00 0.00 0.00 1 1004.4
20260903152024 60 131 0.0 1.0 0.00 0.00 0.00 1 1004.4
20260903151503 60 0 0.0 0.0 0.00 0.00 0.00 1 1004.5
20260903151003 60 0 0.0 0.0 0.00 0.00 0.00 1 1004.5
20260903150524 60 131 0.0 1.0 0.00 0.00 0.00 1 1004.6
20260903150003 60 131 0.0 1.0 0.00 0.00 0.00 1 1004.6
20260903145503 60 0 0.0 0.0 0.00 0.00 0.00 1 1004.6
20260903145003 60 0 0.0 0.0 0.00 0.00 0.00 1 1004.5
20260903144503 60 0 0.0 0.0 0.00 0.00 0.00 1 1004.6
20260903144003 60 145 0.0 1.0 0.00 0.00 0.00 1 1004.7
20260903143503 61 57 0.0 1.0 0.00 0.00 0.00 3 1004.8
20260903143003 61 318 0.0 1.0 0.00 0.00 0.00 8 1004.8
20260903142503 62 312 0.0 1.0 0.00 0.00 0.00 16 1004.9
20260903142003 62 0 0.0 0.0 0.00 0.00 0.00 19 1004.9
20260903141503 62 118 0.0 3.0 0.00 0.00 0.00 26 1004.9
20260903141003 62 118 0.0 3.0 0.00 0.00 0.00 31 1004.9
20260903140524 63 120 0.0 2.0 0.00 0.00 0.00 33 1005.0
20260903140003 63 131 0.0 2.0 0.00 0.00 0.00 35 1005.1
20260903135503 63 132 0.0 2.0 0.00 0.00 0.00 35 1005.1
20260903135003 63 0 0.0 0.0 0.00 0.00 0.00 35 1005.2
20260903134503 63 139 0.0 1.0 0.00 0.00 0.00 37 1005.2
20260903134003 63 134 0.0 2.0 0.00 0.00 0.00 42 1005.3
20260903133503 63 134 0.0 2.0 0.00 0.00 0.00 45 1005.3
20260903133003 64 139 0.0 3.0 0.00 0.00 0.00 46 1005.3
20260903132503 64 145 0.0 3.0 0.00 0.00 0.00 47 1005.4
20260903132024 64 0 0.0 0.0 0.00 0.00 0.00 48 1005.5
20260903131503 64 0 0.0 0.0 0.00 0.00 0.00 50 1005.5
20260903131024 64 130 0.0 3.0 0.00 0.00 0.00 51 1005.6
20260903130502 64 141 0.0 3.0 0.00 0.00 0.00 53 1005.6
20260903130003 64 153 0.0 1.0 0.00 0.00 0.00 53 1005.6
20260903125502 64 153 0.0 1.0 0.00 0.00 0.00 52 1005.7
20260903125002 65 0 0.0 0.0 0.00 0.00 0.00 53 1005.7
20260903124503 65 0 0.0 0.0 0.00 0.00 0.00 56 1005.7
20260903124003 65 0 0.0 0.0 0.00 0.00 0.00 52 1005.8
20260903123503 64 0 0.0 0.0 0.00 0.00 0.00 52 1005.8
20260903123003 64 133 0.0 1.0 0.00 0.00 0.00 52 1005.8
20260903122503 64 125 0.0 1.0 0.00 0.00 0.00 52 1005.8
20260903122003 64 80 0.0 1.0 0.00 0.00 0.00 52 1005.9
20260903121503 64 60 0.0 1.0 0.00 0.00 0.00 52 1006.0
20260903121003 64 287 0.0 1.0 0.00 0.00 0.00 49 1006.1
20260903120503 64 287 0.0 1.0 0.00 0.00 0.00 48 1006.2
20260903120003 64 264 0.0 1.0 0.00 0.00 0.00 48 1006.3
20260903115503 64 292 0.0 1.0 0.00 0.00 0.00 49 1006.4
20260903115002 64 285 0.0 1.0 0.00 0.00 0.00 47 1006.5
20260903114503 64 268 0.0 1.0 0.00 0.00 0.00 51 1006.5
20260903114003 64 251 0.0 1.0 0.00 0.00 0.00 51 1006.6
20260903113503 64 251 0.0 1.0 0.00 0.00 0.00 51 1006.6
20260903113003 64 0 0.0 0.0 0.00 0.00 0.00 52 1006.6
20260903112503 64 251 0.0 1.0 0.00 0.00 0.00 53 1006.8
20260903112003 64 269 0.0 1.0 0.00 0.00 0.00 57 1006.8
20260903111503 64 283 0.0 1.0 0.00 0.00 0.00 58 1006.9
20260903111003 65 301 0.0 1.0 0.00 0.00 0.00 59 1006.9
20260903110503 65 305 0.0 1.0 0.00 0.00 0.00 59 1006.9
20260903110003 65 261 0.0 1.0 0.00 0.00 0.00 59 1007.1
20260903105503 65 261 0.0 1.0 0.00 0.00 0.00 56 1007.1
20260903105003 65 0 0.0 0.0 0.00 0.00 0.00 58 1007.1
20260903104503 64 0 0.0 0.0 0.00 0.00 0.00 56 1007.3